Weather History for Austin Bergstrom, TX

Change the Weather History Date:

Wednesday, October 29, 2014

  Actual Average Record
Temperature  
Mean Temperature 69 °F 65 °F  
Max Temperature 81 °F 78 °F 88 °F (1956)
Min Temperature 57 °F 52 °F 33 °F (2008)
Degree Days  
Heating Degree Days 0 3  
Month to date heating degree days 0 43  
Since 1 July heating degree days 1 45  
Cooling Degree Days 4 3  
Month to date cooling degree days 207 168  
Year to date cooling degree days 2809 2696  
Growing Degree Days 21 (Base 50)    
Moisture  
Dew Point 62 °F    
Average Humidity 76    
Maximum Humidity 97    
Minimum Humidity 54    
Precipitation  
Precipitation 0.00 in 0.13 in 4.30 in (1960)
Month to date precipitation 1.77 3.70  
Year to date precipitation 20.54 29.34  
Snow  
Snow 0.00 in - - ()
Month to date snowfall 0.0  
Since 1 July snowfall 0.0  
Since 1 September snowfall 0.0  
Snow Depth 0.00 in    
Sea Level Pressure  
Sea Level Pressure 30.10 in    
Wind  
Wind Speed 7 mph (NNE)    
Max Wind Speed 15 mph    
Max Gust Speed 20 mph    
Visibility 10 miles    
Events      
T = Trace of Precipitation, MM = Missing Value Source: NWS Daily Summary

Daily Weather History Graph

Daily Weather History Graph

Search for Another Location

Airport:

Trip Planner

Search our weather history database for the weather conditions in past years. The results will help you decide how hot, cold, wet, or windy it might be!

Date:

Astronomy

Oct. 29, 2014 Rise Set
Actual Time 7:42 AM CDT 6:45 PM CDT
Civil Twilight 7:17 AM CDT 7:10 PM CDT
Nautical Twilight 6:49 AM CDT 7:38 PM CDT
Astronomical Twilight 6:21 AM CDT 8:06 PM CDT
Moon 12:57 PM CDT (10/29) No Moon Set
Length of Visible Light 11h 52m
Length of Day
11h 03m
Waxing Crescent, 34% of the Moon is Illuminated
Oct 29
Waxing Crescent
Oct 30
First Quarter
Nov 6
Full
Nov 14
Last Quarter
Nov 22
New

Hourly Weather History & Observations

Time (CDT) Temp. Dew Point Humidity Pressure Visibility Wind Dir Wind Speed Gust Speed Precip Events Conditions
12:53 AM 73.0 °F 64.9 °F 76% 30.05 in 10.0 mi North 5.8 mph - N/A   Mostly Cloudy
1:53 AM 68.0 °F 63.0 °F 84% 30.05 in 10.0 mi NNW 4.6 mph - N/A   Partly Cloudy
2:53 AM 66.9 °F 61.0 °F 81% 30.06 in 10.0 mi NNW 4.6 mph - N/A   Partly Cloudy
3:53 AM 66.9 °F 62.1 °F 84% 30.06 in 10.0 mi North 6.9 mph - N/A   Partly Cloudy
4:53 AM 66.0 °F 62.1 °F 87% 30.06 in 10.0 mi NNW 6.9 mph - N/A   Partly Cloudy
5:53 AM 64.9 °F 62.1 °F 90% 30.07 in 10.0 mi North 6.9 mph - N/A   Partly Cloudy
6:53 AM 68.0 °F 63.0 °F 84% 30.09 in 10.0 mi NNE 10.4 mph - N/A   Mostly Cloudy
7:20 AM 68.0 °F 64.0 °F 87% 30.11 in 10.0 mi North 9.2 mph - N/A   Overcast
7:53 AM 68.0 °F 64.0 °F 87% 30.11 in 10.0 mi North 12.7 mph - N/A   Overcast
8:53 AM 68.0 °F 63.0 °F 84% 30.13 in 10.0 mi NNE 12.7 mph - N/A   Overcast
9:53 AM 70.0 °F 63.0 °F 78% 30.15 in 10.0 mi NNE 12.7 mph - N/A   Overcast
10:29 AM 70.0 °F 62.1 °F 76% 30.16 in 10.0 mi NNE 11.5 mph - N/A   Overcast
10:53 AM 71.1 °F 63.0 °F 75% 30.15 in 10.0 mi NNE 11.5 mph - N/A   Overcast
11:53 AM 73.9 °F 63.0 °F 68% 30.15 in 10.0 mi NNE 9.2 mph - N/A   Overcast
12:53 PM 75.9 °F 62.1 °F 62% 30.13 in 10.0 mi North 10.4 mph - N/A   Overcast
1:53 PM 77.0 °F 62.1 °F 60% 30.11 in 10.0 mi NE 8.1 mph - N/A   Overcast
2:53 PM 79.0 °F 62.1 °F 56% 30.07 in 10.0 mi ENE 9.2 mph - N/A   Mostly Cloudy
3:53 PM 79.0 °F 62.1 °F 56% 30.06 in 10.0 mi North 9.2 mph - N/A   Mostly Cloudy
4:53 PM 78.1 °F 61.0 °F 56% 30.07 in 10.0 mi NNE 9.2 mph - N/A   Mostly Cloudy
5:53 PM 75.9 °F 61.0 °F 60% 30.06 in 10.0 mi NE 10.4 mph - N/A   Scattered Clouds
6:53 PM 73.0 °F 61.0 °F 66% 30.06 in 10.0 mi ENE 6.9 mph - N/A   Partly Cloudy
7:53 PM 70.0 °F 60.1 °F 71% 30.08 in 10.0 mi East 4.6 mph - N/A   Clear
8:53 PM 64.4 °F 60.8 °F 88% 30.11 in 10.0 mi Calm Calm - N/A   Clear
9:53 PM 61.0 °F 59.0 °F 93% 30.11 in 10.0 mi Calm Calm - N/A   Clear
10:53 PM 62.1 °F 59.0 °F 90% 30.12 in 9.0 mi Calm Calm - N/A   Partly Cloudy
11:53 PM 59.0 °F 57.9 °F 96% 30.11 in 10.0 mi Calm Calm - N/A   Clear